[[{"header":{"parameterUnit":"m.s-1","parameterCategory":1,"la1":30.2991,"la2":30.254,"lo1":-89.0895,"lo2":-89.0444,"dy":0.0017,"dx":0.0017,"nx":28,"ny":28,"refTime":"2025-12-12T09:00:00:Z","depth":0,"parameterNumber":2,"parameterNumberName":"U-component_of_WINDS"},"data":[0,0,0,0,0,0,0,0,0,0,0,0,0,0,0,0,0,0,0,0,0,0,0,0,0,0,0,0,0,0,0,0,0,0,0,0,0,0,0,0,0,0,0,0,0,0,0,0,0,0,0,0,0,0,0,0,0,0,-2.4705,-2.4705,0,-2.4721,-2.4721,-2.4722,-2.4686,-2.4685,-2.4684,-2.4682,-2.47,-2.4702,-2.4703,0,0,0,0,0,0,0,0,0,0,0,0,0,-2.4645,-2.4646,-2.4705,-2.4705,-2.4705,-2.4721,-2.4721,-2.4722,-2.4686,-2.4685,-2.4683,-2.4682,-2.47,-2.4702,-2.4703,0,0,0,0,0,0,0,0,0,0,0,0,0,-2.4667,-2.4647,-2.4705,-2.4689,-2.4688,-2.4721,-2.4721,-2.4722,-2.4686,-2.4685,-2.4683,-2.4681,-2.4699,-2.4701,-2.4704,-2.4753,0,0,-2.4711,-2.4712,0,0,0,0,0,0,0,0,-2.4666,-2.4669,-2.4691,-2.469,-2.4689,-2.47,-2.4707,-2.4732,-2.4687,-2.4687,-2.4682,-2.468,-2.4702,-2.4704,-2.471,-2.4753,-2.4754,-2.4711,-2.4712,-2.4713,-2.4714,0,0,0,0,0,0,0,-2.4664,-2.4668,-2.4711,-2.4692,-2.469,-2.4682,-2.4684,-2.4711,-2.4704,-2.4687,-2.4684,-2.4687,-2.4701,-2.4708,-2.4711,-2.4754,-2.4711,-2.4713,-2.4714,-2.4715,-2.484,-2.4842,0,0,0,0,0,0,-2.4665,-2.4667,-2.4711,-2.4712,-2.4673,-2.4685,-2.4686,-2.4698,-2.4703,-2.4703,-2.4688,-2.4685,-2.4705,-2.4708,-2.4711,-2.4769,-2.4713,-2.4715,-2.4717,-2.4838,-2.4841,-2.4843,0,0,0,0,0,0,-2.4663,-2.4669,-2.471,-2.4689,-2.4694,-2.4688,-2.4701,-2.4699,-2.4707,-2.4704,-2.4703,-2.4697,-2.4704,-2.4708,-2.4743,-2.4769,-2.4717,-2.4719,-2.4836,-2.4839,-2.4842,-2.4886,0,0,0,0,0,0,-2.4662,-2.4669,-2.4686,-2.469,-2.4695,-2.4741,-2.4703,-2.4701,-2.4711,-2.4707,-2.4712,-2.4712,-2.4703,-2.474,-2.4745,-2.4772,-2.472,-2.4834,-2.4838,-2.4841,-2.4882,-2.489,-2.4897,0,0,0,0,0,-2.466,-2.4698,-2.4687,-2.4693,-2.4717,-2.4742,-2.4745,-2.4734,-2.4713,-2.4731,-2.473,-2.4712,-2.4766,-2.4743,-2.4749,-2.4777,-2.4832,-2.4836,-2.4841,-2.4879,-2.4888,-2.4896,0,0,0,0,0,0,-2.4697,-2.4698,-2.4686,-2.4726,-2.4735,-2.4736,-2.4758,-2.4744,-2.4759,-2.4754,-2.474,-2.4742,-2.478,-2.4782,-2.4757,-2.4826,-2.4796,-2.4801,-2.4822,-2.4831,-2.4839,-2.4837,-2.4722,0,0,0,0,0,-2.471,-2.473,-2.473,-2.4766,-2.477,-2.4764,-2.4775,-2.4766,-2.4774,-2.4777,-2.4778,-2.4787,-2.4807,-2.4819,-2.4837,-2.4883,-2.4884,-2.4905,-2.4912,-2.4918,-2.4923,-2.4949,-2.4958,-2.4857,-2.4857,-2.4857,0,0,-2.4737,-2.474,-2.4753,-2.4773,-2.4778,-2.4801,-2.4767,-2.4791,-2.4808,-2.4781,-2.4814,-2.4816,-2.4825,-2.4866,-2.4884,-2.4869,-2.4952,-2.4924,-2.4929,-2.493,-2.4954,-2.4964,-2.4972,-2.486,-2.486,-2.4859,0,0,-2.4796,-2.4801,-2.4831,-2.4838,-2.4847,-2.4843,-2.485,-2.4855,-2.4855,-2.4888,-2.4869,-2.4889,-2.4922,-2.493,-2.4938,-2.5005,-2.4988,-2.5011,-2.5048,-2.5074,-2.5082,-2.5089,-2.5113,-2.5121,-2.5016,-2.5016,-2.5016,0,-2.4828,-2.486,-2.4848,-2.4875,-2.4884,-2.4862,-2.4893,-2.4901,-2.4915,-2.4923,-2.4906,-2.4948,-2.4953,-2.4996,-2.5012,-2.502,-2.5029,-2.5009,-2.5082,-2.5088,-2.5095,-2.5117,-2.5126,-2.5019,-2.5018,-2.5018,-2.5018,0,-2.4899,-2.4922,-2.4946,-2.496,-2.4973,-2.5002,-2.4996,-2.501,-2.5001,-2.4999,-2.5035,-2.504,-2.5059,-2.5069,-2.506,-2.5111,-2.5102,-2.5084,-2.5053,-2.5107,-2.5128,-2.5137,-2.5022,-2.5021,-2.5021,-2.502,0,0,-2.498,-2.499,-2.4999,-2.5006,-2.5016,-2.5033,-2.5062,-2.5081,-2.5094,-2.5106,-2.5129,-2.516,-2.5144,-2.5153,-2.5145,-2.5168,-2.5221,-2.5147,-2.5147,-2.516,-2.5279,-2.5292,-2.5302,-2.5211,-2.5213,-2.5214,-2.5278,0,-2.5039,-2.5087,-2.5079,-2.5126,-2.5148,-2.5129,-2.5154,-2.5163,-2.5163,-2.5182,-2.5183,-2.5204,-2.5181,-2.5187,-2.5209,-2.521,-2.5244,-2.5205,-2.5233,-2.5235,-2.523,-2.5313,-2.5326,-2.5386,-2.5286,-2.5288,-2.5289,0,-2.5113,-2.5128,-2.5178,-2.5186,-2.5194,-2.5217,-2.5234,-2.5253,-2.5264,-2.5263,-2.5275,-2.5264,-2.5294,-2.5264,-2.5306,-2.528,-2.5292,-2.5294,-2.5296,-2.5297,-2.5264,-2.5315,-2.5405,-2.5413,-2.5301,-2.53,-2.5299,0,-2.5166,-2.5199,-2.5233,-2.524,-2.5251,-2.5267,-2.5273,-2.5282,-2.5295,-2.5311,-2.5319,-2.5338,-2.5349,-2.5365,-2.536,-2.5338,-2.5403,-2.5373,-2.5403,-2.5403,-2.5416,-2.5415,-2.5507,-2.5425,-2.5425,-2.5425,-2.5425,0,-2.5232,-2.5263,-2.5258,-2.5279,-2.5314,-2.5305,-2.534,-2.5344,-2.5353,-2.5375,-2.536,-2.5381,-2.5374,-2.5395,-2.5392,-2.5428,-2.5433,-2.5433,-2.5431,-2.5433,-2.5433,-2.544,-2.5435,-2.5427,-2.5427,-2.5426,-2.5426,0,-2.5297,-2.5294,-2.533,-2.5338,-2.5341,-2.5367,-2.5374,-2.5394,-2.5394,-2.5422,-2.5429,-2.5429,-2.5454,-2.5451,-2.5478,-2.5476,-2.552,-2.5514,-2.5516,-2.5515,-2.5545,-2.5542,-2.5644,-2.5657,-2.5567,-2.5568,-2.5569,0,-2.5338,-2.5361,-2.5372,-2.5386,-2.5393,-2.5415,-2.5428,-2.5422,-2.5436,-2.5453,-2.5471,-2.5495,-2.5513,-2.5553,-2.5556,-2.5578,-2.5572,-2.5607,-2.5575,-2.5577,-2.5572,-2.557,-2.5573,-2.5612,-2.5613,-2.5614,-2.5615,0,-2.5411,-2.541,-2.5429,-2.5449,-2.5465,-2.548,-2.5494,-2.5506,-2.5501,-2.5519,-2.5544,-2.5558,-2.5587,-2.5611,-2.5632,-2.5638,-2.5626,-2.5625,-2.5633,-2.5635,-2.5635,-2.5635,-2.5532,-2.5622,-2.5621,-2.5621,-2.562,-2.562,-2.5465,-2.5486,-2.5497,-2.552,-2.553,-2.5544,-2.5563,-2.5567,-2.5588,-2.561,-2.5606,-2.5635,-2.5648,-2.5675,-2.5684,-2.5707,-2.5694,-2.5706,-2.5709,-2.5712,-2.5715,-2.5632,-2.5711,-2.5711,-2.571,-2.571,-2.571,0,-2.5538,-2.5545,-2.5566,-2.5586,-2.5604,-2.5592,-2.5607,-2.5624,-2.5649,-2.5662,-2.5681,-2.5711,-2.5735,-2.5741,-2.5764,-2.5781,-2.5777,-2.5788,-2.5786,-2.5788,-2.5725,-2.5715,-2.5791,-2.5791,-2.5791,-2.5791,-2.5791,-2.5791,-2.5577,-2.5612,-2.5612,-2.5652,-2.5659,-2.5687,-2.5697,-2.571,-2.5721,-2.5755,-2.5775,-2.5779,-2.579,-2.5814,-2.5836,-2.5838,-2.5847,-2.586,-2.5859,-2.58,-2.5792,-2.5784,-2.5775,-2.5862,-2.5862,-2.592,-2.592,-2.5921]},{"header":{"parameterUnit":"m.s-1","parameterCategory":1,"la1":30.2991,"la2":30.254,"lo1":-89.0895,"lo2":-89.0444,"dy":0.0017,"dx":0.0017,"nx":28,"ny":28,"refTime":"2025-12-12T09:00:00:Z","depth":0,"parameterNumber":3,"parameterNumberName":"V-component_of_WINDS"},"data":[0,0,0,0,0,0,0,0,0,0,0,0,0,0,0,0,0,0,0,0,0,0,0,0,0,0,0,0,0,0,0,0,0,0,0,0,0,0,0,0,0,0,0,0,0,0,0,0,0,0,0,0,0,0,0,0,0,0,0.9894,0.9894,0,0.9868,0.9868,0.9868,0.9891,0.9892,0.9893,0.9893,0.9865,0.9864,0.9862,0,0,0,0,0,0,0,0,0,0,0,0,0,0.9964,0.9963,0.9894,0.9894,0.9894,0.9868,0.9868,0.9868,0.9891,0.9892,0.9893,0.9894,0.9866,0.9864,0.9862,0,0,0,0,0,0,0,0,0,0,0,0,0,0.9936,0.9963,0.9895,0.9902,0.9903,0.9869,0.9868,0.9868,0.989,0.9892,0.9893,0.9894,0.9866,0.9864,0.9862,0.9818,0,0,0.9854,0.9853,0,0,0,0,0,0,0,0,0.9937,0.9933,0.9901,0.9902,0.9902,0.9884,0.9882,0.9851,0.989,0.9895,0.9894,0.9895,0.987,0.9868,0.986,0.9817,0.9815,0.9854,0.9852,0.9851,0.9851,0,0,0,0,0,0,0,0.9939,0.9934,0.9884,0.9901,0.9901,0.9907,0.9905,0.9877,0.9875,0.9895,0.9896,0.9893,0.9871,0.9862,0.9859,0.9815,0.9854,0.9852,0.985,0.9849,0.9738,0.9737,0,0,0,0,0,0,0.9941,0.9936,0.9885,0.9883,0.9924,0.9905,0.9902,0.9889,0.9875,0.9875,0.9892,0.9894,0.9865,0.9862,0.9858,0.9808,0.9851,0.9849,0.9848,0.974,0.9738,0.9736,0,0,0,0,0,0,0.9942,0.9936,0.9886,0.991,0.9904,0.9902,0.9887,0.9887,0.9878,0.9873,0.9873,0.9883,0.9866,0.9862,0.9829,0.9807,0.9848,0.9846,0.9741,0.9739,0.9737,0.9706,0,0,0,0,0,0,0.9944,0.9936,0.9919,0.991,0.9903,0.9856,0.9885,0.9886,0.9874,0.9877,0.9865,0.9864,0.9867,0.9832,0.9826,0.9805,0.9844,0.9743,0.974,0.9738,0.9709,0.9703,0.9698,0,0,0,0,0,0.9946,0.991,0.9918,0.9912,0.9882,0.9855,0.9851,0.9856,0.9872,0.9856,0.9853,0.9864,0.9811,0.9829,0.9822,0.9799,0.9745,0.9741,0.9738,0.9711,0.9704,0.9698,0,0,0,0,0,0,0.9916,0.9909,0.9918,0.9878,0.9867,0.9859,0.9838,0.9848,0.9831,0.9835,0.9841,0.9838,0.9803,0.9798,0.9818,0.9758,0.978,0.9776,0.9762,0.9756,0.975,0.9752,0.9842,0,0,0,0,0,0.9905,0.9884,0.9879,0.9845,0.9839,0.984,0.9828,0.9833,0.9822,0.9817,0.9812,0.98,0.9781,0.9768,0.975,0.9709,0.9707,0.969,0.9685,0.968,0.9676,0.9656,0.9649,0.9725,0.9725,0.9725,0,0,0.9881,0.9875,0.9861,0.9839,0.9831,0.981,0.9835,0.9811,0.9796,0.9813,0.9782,0.9778,0.9766,0.9729,0.9713,0.9724,0.9655,0.9676,0.9672,0.967,0.9652,0.9644,0.9638,0.9723,0.9723,0.9724,0,0,0.9827,0.982,0.9792,0.9784,0.9773,0.9774,0.9767,0.9759,0.9757,0.9726,0.974,0.9722,0.9688,0.968,0.9671,0.9618,0.9628,0.9612,0.9583,0.9563,0.9557,0.9552,0.9534,0.9527,0.9607,0.9607,0.9607,0,0.9799,0.9768,0.9775,0.9751,0.9742,0.9758,0.973,0.9722,0.9705,0.9698,0.9711,0.9671,0.9664,0.9627,0.9614,0.9606,0.9599,0.9612,0.9557,0.9552,0.9547,0.953,0.9523,0.9605,0.9606,0.9606,0.9606,0,0.9735,0.9713,0.9691,0.9676,0.9664,0.9638,0.9642,0.9629,0.9636,0.9636,0.9606,0.9598,0.958,0.9572,0.9577,0.9536,0.9543,0.9556,0.9579,0.9538,0.9522,0.9516,0.9603,0.9603,0.9604,0.9604,0,0,0.9658,0.9651,0.9642,0.9637,0.9628,0.9611,0.9587,0.957,0.9559,0.9548,0.9528,0.9501,0.9514,0.9504,0.9509,0.9492,0.9453,0.9508,0.9508,0.9499,0.9408,0.9398,0.9391,0.946,0.9459,0.9458,0.941,0,0.9605,0.9563,0.9571,0.953,0.9511,0.9528,0.9507,0.95,0.95,0.9484,0.9484,0.9465,0.9483,0.9478,0.9462,0.9461,0.9435,0.9464,0.9442,0.9441,0.9444,0.9382,0.9371,0.9325,0.9403,0.9402,0.9402,0,0.9536,0.9525,0.9482,0.9479,0.9471,0.9452,0.9439,0.9423,0.9416,0.9417,0.9408,0.9417,0.9394,0.9417,0.9386,0.9406,0.9398,0.9396,0.9395,0.9392,0.9418,0.9379,0.9311,0.9304,0.9392,0.9392,0.9393,0,0.9486,0.946,0.9432,0.9427,0.9421,0.9408,0.9405,0.9399,0.9389,0.9378,0.9372,0.9357,0.9349,0.9338,0.9344,0.9361,0.9312,0.9336,0.9313,0.9313,0.9301,0.9302,0.9231,0.9295,0.9296,0.9296,0.9296,0,0.9426,0.9399,0.941,0.9392,0.9364,0.9374,0.9346,0.9345,0.934,0.9323,0.9337,0.9321,0.933,0.9314,0.9319,0.9293,0.9289,0.929,0.9291,0.9288,0.9288,0.9283,0.9286,0.9294,0.9294,0.9295,0.9295,0,0.9364,0.937,0.9341,0.934,0.9339,0.9318,0.9317,0.9301,0.9304,0.9283,0.9278,0.9282,0.9265,0.927,0.9251,0.9254,0.9222,0.9227,0.9225,0.9226,0.9203,0.9206,0.9127,0.9118,0.9187,0.9187,0.9186,0,0.9325,0.9306,0.9303,0.9294,0.929,0.9274,0.9266,0.9276,0.9266,0.9258,0.9243,0.9228,0.9216,0.9189,0.919,0.9176,0.9182,0.9155,0.918,0.9178,0.9182,0.9184,0.9182,0.915,0.9149,0.9149,0.9148,0,0.9255,0.926,0.9247,0.9236,0.9226,0.9217,0.921,0.9201,0.9211,0.92,0.9184,0.9175,0.9157,0.9143,0.9131,0.9128,0.914,0.9141,0.9135,0.9132,0.9132,0.9133,0.9212,0.9142,0.9143,0.9143,0.9144,0.9144,0.9204,0.9189,0.9186,0.9172,0.9168,0.9162,0.9148,0.915,0.9137,0.9124,0.9131,0.9113,0.9108,0.9094,0.909,0.9076,0.9086,0.9077,0.9075,0.9073,0.9071,0.9134,0.9074,0.9074,0.9074,0.9074,0.9074,0,0.9136,0.9136,0.9123,0.9114,0.9103,0.9117,0.9111,0.9101,0.9085,0.908,0.907,0.9052,0.9039,0.904,0.9028,0.9017,0.9022,0.9013,0.9014,0.9014,0.9062,0.9068,0.9009,0.9009,0.9009,0.9009,0.9009,0.9009,0.9099,0.9075,0.908,0.9054,0.9054,0.9037,0.9033,0.9027,0.9024,0.9005,0.8994,0.8996,0.8994,0.8982,0.8971,0.8972,0.8967,0.8956,0.8959,0.9003,0.901,0.9016,0.9022,0.8955,0.8955,0.8912,0.8911,0.8911]}]]